Regional Weather Roundup
Issued by NWS

Home | Current Version | Previous Version | Text Only | Print | Product List | Glossary On
Versions: 1 2 3 4 5 6 7 8 9 10 11 12 13 14 15 16 17 18 19 20 21 22 23 24 25 26 27 28 29 30 31 32 33 34 35 36 37 38 39 40 41 42 43 44 45 46 47 48 49 50
000
ASMX46 KSGX 311410
RWRMX

MEXICAN WEATHER ROUNDUP
NATIONAL WEATHER SERVICE SAN DIEGO CA
600 AM PST SAT JAN 31 2015

BAJA CALIFORNIA

CITY           SKY/WX    TMP DP  RH WIND       PRES   REMARKS
TIJUANA        MOCLDY    52  48  87 CALM      29.87S

NORTHWESTERN MEXICO

CITY           SKY/WX    TMP DP  RH WIND       PRES   REMARKS
CHIHUAHUA      MOCLDY    46  46 100 SW9       29.97
CULIACAN       MOCLDY    64  63  94 CALM      29.94
GUAYMAS        PTCLDY    64  61  88 CALM      29.82
HERMOSILLO     CLOUDY    63  61  94 S7        29.87
JUAREZ         CLOUDY    43  43 100 CALM      29.85
OBREGON        LGT RAIN  61  61 100 E10       29.84

NORTHEASTERN MEXICO

CITY           SKY/WX    TMP DP  RH WIND       PRES   REMARKS
MATAMOROS      MOCLDY    61  61 100 CALM      30.10
MONTERREY      DRIZZLE   59  57  94 E6        30.04R FOG
NUEVO LAREDO   CLOUDY    61  57  88 SE6       30.07  FOG
PIEDRAS NEGRAS LGT RAIN  50  50 100 CALM      30.10  VSB 1/2
REYNOSA        MOCLDY    61  57  88 SE8       30.05
SALTILLO       MOCLDY    52  48  87 CALM      30.12R FOG
TORREON        CLOUDY    54  50  87 CALM      30.04  HAZE
VICTORIA       PTCLDY    61  61 100 S10       30.07

WESTERN MEXICO

CITY           SKY/WX    TMP DP  RH WIND       PRES   REMARKS
AGUASCALIENTES MOCLDY    46  36  66 CALM      30.19
COLIMA         PTCLDY    66  63  88 CALM      30.04R
DURANGO        CLOUDY    50  48  93 CALM      30.11R
GUADALAJARA    MOCLDY    54  50  87 CALM      30.14
MANZANILLO     PTCLDY    70  64  83 N6        29.90R
MAZATLAN       CLOUDY    64  63  94 W7        29.92R THUNDER
PTO. VALLARTA  MOCLDY    70  66  88 E5        29.91S
TEPIC          MOCLDY    63  61  94 S3        30.07S
URUAPAN        CLOUDY    59  57  94 CALM      30.16R FOG
ZACATECAS      PTCLDY    45  34  65 S9        30.17R

CENTRAL MEXICO

CITY           SKY/WX    TMP DP  RH WIND       PRES   REMARKS
CUERNAVACA     PTCLDY    54  39  58 CALM      30.18R
LEON           MOCLDY    48  41  76 CALM      30.25R
MEXICO CITY    CLEAR     43  36  75 NE3       30.29R
MORELIA        PTCLDY    41  36  81 CALM      30.20
POZA RICA      FOG       59  59 100 CALM      30.12S VSB 1/16
PUEBLA         PTSUNNY   37  30  75 N5        30.30R WCI  34
QUERETARO      PTCLDY    39  39 100 CALM      30.25S
S. LUIS POTOSI CLOUDY    45  43  93 CALM      30.18S
TAMPICO        FOG       61  59  94 S3        30.09S VSB 1/4
TOLUCA         PTCLDY    32  25  74 SE3       30.32R
VERACRUZ       SUNNY     61  57  88 W5        30.11R

SOUTHERN MEXICO

CITY           SKY/WX    TMP DP  RH WIND       PRES   REMARKS
ACAPULCO       SUNNY     72  68  88 CALM      29.92R
B. DE HUATULCO SUNNY     73  66  78 CALM      29.96
MINATITLAN     SUNNY     61  54  77 CALM      30.07
OAXACA         SUNNY     43  37  81 N6        30.29R
PTO. ESCONDIDO SUNNY     73  68  83 CALM      30.06S
TAPACHULA      SUNNY     73  61  64 CALM      29.93R
TUX. GUTIERREZ SUNNY     57  52  82 S2        30.13R
VILLAHERMOSA   MOSUNNY   63  61  94 CALM      30.11R
ZIHUATANEJO    CLEAR     72  63  73 CALM      29.93R

YUCATAN PENINSULA

CITY           SKY/WX    TMP DP  RH WIND       PRES   REMARKS
CAMPECHE       MOSUNNY   64  63  94 SE7       30.10R
CANCUN         SUNNY     73  59  60 NE8       30.13R
CHETUMAL       SUNNY     68  64  88 CALM      30.10
C. DEL CARMEN  MOSUNNY   72  68  88 S6        30.08
COZUMEL        MOSUNNY   70  63  78 E7        30.12R
MERIDA         SUNNY     64  59  82 E5        30.15R

$$




USA.gov is the U.S. government's official web portal to all federal, state and local government web resources and services.